SCP
0 0 0 0 0 0 0 0 0 0 0 0 0 0 0 0 0 0 0 0 0 0 0 0 0 -0 0 0 0 -0 -0 -0 -0 -0 -0 -0 0 0 0 0 0 0 0
0 0 0 0 0 0 0 0 0 0 0 0 0 0 0 0 0 0 0 0 0 0 0 0 0 0 0 0 0 -0 -0 0 -0 -0 -0 -0 0 0 0 0 0 0 0
0 0 0 0 0 0 0 0 0 0 0 0 0 0 0 0 0 0 0 0 0 0 0 0 0 0 0 0 0 -0 -0 -0 -0 -0 -0 -0 0 0 0 0 0 0 0
0 0 0 0 0 0 0 0 0 0 0 0 0 0 0 0 0 0 0 0 0 0 0 0 0 0 0 0 0 0 -0 -0 -0 -0 -0 -0 0 0 0 0 0 0 0
0 0 0 0 0 0 0 0 0 0 0 0 0 0 0 0 0 0 0 0 0 0 0 0 0 0 0 0 0 0 -0 -0 -0 -0 -0 -0 0 0 0 0 0 0 0
0 0 0 0 0 0 0 0 0 0 0 0 0 0 0 0 0 0 0 0 0 0 0 0 0 0 0 0 0 0 0 -0 -0 -0 -0 -0 0 0 0 0 0 0 0
0 0 0 0 0 0 0 0 0 0 0 0 0 0 0 0 0 0 0 0 0 0 0 0 0 0 0 -0 -0 0 0 0 -0 0 -0 -0 0 0 0 0 0 0 0
0 0 0 0 0 0 0 0 0 0 0 0 0 0 0 0 0 0 0 0 0 0 0 0 0 0 -0 0 -0 -0 -0 -0 -0 -0 -0 0 0 0 0 0 0 0 0
0 0 0 0 0 0 0 0 0 0 0 0 0 0 0 0 0 0 0 0 0 0 0 0 0 0 0 0 0 -0 -0 -0 -0 0 0 0 0 0 0 0 0 0 0
0 0 0 0 0 0 0 0 0 0 0 0 0 0 0 0 0 0 0 0 0 -0 0 0 0 0 0 0 -0 -0 -0 -0 -0 0 -0 0 0 0 0 0 0 0 0
0 0 0 0 0 0 0 0 0 0 0 0 0 0 0 0 0 0 0 0 0 -0 0 0 0 0 0 0 0 -0 -0 -0 -0 0 0 0 0 0 0 0 0 0 0
0 0 0 0 0 0 0 0 0 0 0 0 0 0 0 0 0 0 0 0 0 0 0 0 0 0 0 0 0 -0 -0 -0 0 0 0 0 0 0 0 0 0 0 0
0 0 0 0 0 0 0 0 0 0 0 0 0 0 0 0 0 0 0 0 0 0 -0 0 0 0 0 0 0 0 -0 -0 0 0 0 0 0 0 0 0 0 0 0
0 0 0 0 0 0 0 0 0 0 0 0 0 -0 -0 0 -0 0 0 0 0 -0 -0 0 0 0 0 0 0 0 -0 -0 0 0 0 0 0 0 0 0 0 0 0
0 0 0 0 0 0 0 0 0 0 0 0 0 -0 -0 -0 -0 0 0 0 0 0 -0 0 0 0 0 0 0 0 0 0 0 0 0 0 0 0 0 0 0 0 0
0 0 0 0 0 0 0 0 0 0 0 -0 -0 -0 -0 -0 0 -0 -0 -0 -0 -0 0 0 0 0 0 0 0 0 0 0 0 0 0 0 0 0 0 0 0 0 0
0 0 0 0 0 0 0 0 0 0 0 0 -0 -0 -0 -0 0 -0 -0 -0 -0 0 0 0 0 0 0 0 0 0 0 0 0 0 0 0 0 0 0 0 0 0 0
0 0 0 0 0 0 0 0 0 0 0 0 0 -0 -0 -0 0 0 -0 -0 -0 0 0 0 0 0 0 0 0 0 -0 0 0 0 0 0 0 0 0 0 0 0 0
0 0 0 0 0 0 0 0 0 0 0 0 0 0 0 -0 0 0 -0 -0 -0 0 0 0 0 0 0 0 0 0 -0 0 0 0 0 0 0 0 0 0 0 0 0
0 0 0 0 0 0 0 0 0 0 0 0 -0 -0 -0 -0 0 0 -0 -0 -0 0 0 0 0 0 0 0 0 0 0 0 0 0 0 0 0 0 0 0 0 0 0
0 0 0 0 0 0 0 0 0 0 0 0 0 -0 0 -0 -0 0 -0 -0 -0 0 0 0 0 0 0 0 0 0 0 0 0 0 0 0 0 0 0 0 0 0 0
0 0 0 0 0 0 0 0 0 0 0 0 0 -0 0 -0 -0 0 -0 0 0 0 0 0 0 0 0 0 0 0 0 0 0 0 0 0 0 0 0 0 0 0 0
0 0 0 0 0 0 0 0 0 0 0 0 0 -0 0 0 0 0 0 -0 0 0 0 0 0 0 0 0 0 0 0 0 0 0 0 0 0 0 0 0 0 0 0
0 0 0 0 0 0 0 0 0 0 0 -0 0 0 -0 0 0 0 0 -0 -0 0 0 0 0 0 0 0 0 0 0 0 0 0 0 0 0 0 0 0 0 0 0
0 0 0 0 0 0 0 0 0 0 0 -0 -0 0 -0 -0 0 0 0 -0 -0 -0 -0 0 0 0 0 0 0 0 0 0 0 0 0 0 0 0 0 0 0 0 0
0 0 0 0 0 0 0 0 0 0 0 0 -0 -0 -0 -0 -0 0 -0 -0 -0 -0 -0 0 0 0 0 0 0 0 0 0 0 0 0 0 0 0 0 0 0 0 0
Wind_Speed_500mb
39 42 50 56 63 68 75 80 85 88 86 89 90 92 94 98 99 94 88 90 86 77 84 82 90 99 97 63 76 68 65 64 75 86 92 125 47 123 101 103 88 90 92
40 45 52 59 65 71 76 82 85 88 85 86 90 95 100 100 97 91 90 85 80 82 78 77 86 81 97 63 74 71 68 73 75 83 78 105 112 103 128 127 116 102 108
40 48 54 61 68 74 78 83 85 87 89 88 90 92 97 100 94 88 82 82 77 81 84 87 87 81 96 78 63 66 69 64 80 74 92 110 102 113 110 122 127 133 142
41 49 56 63 70 75 80 82 83 85 89 91 91 93 93 95 84 75 69 74 78 80 80 77 82 82 94 83 53 68 69 69 76 69 88 102 120 89 128 131 133 133 134
43 50 59 66 72 76 79 80 82 82 86 89 93 92 91 86 80 65 62 66 70 77 76 73 76 71 90 93 79 48 68 65 76 80 90 87 98 113 126 123 127 132 142
44 55 63 70 74 76 75 78 80 81 83 88 91 93 90 83 67 66 66 73 74 77 81 82 77 75 76 98 85 74 64 76 74 79 91 103 107 129 119 131 129 118 104
45 56 65 73 76 75 75 75 77 82 86 89 89 88 85 79 67 65 63 68 75 80 79 81 80 77 69 76 92 91 78 80 76 77 86 112 79 130 124 132 135 142 130
47 57 65 71 72 71 72 72 76 82 86 87 88 85 81 74 65 65 64 65 69 71 82 82 81 79 77 72 71 87 95 89 88 84 91 104 90 132 140 153 155 144 119
47 58 65 68 68 69 70 71 75 84 88 89 85 82 79 69 60 63 61 62 73 75 88 78 74 78 79 69 66 78 80 93 90 87 90 106 105 137 156 136 132 133 116
47 57 61 63 64 65 66 69 73 80 87 89 91 88 86 80 72 64 60 52 67 69 63 75 70 70 72 60 66 75 83 90 88 87 77 84 111 144 149 163 159 148 135
45 49 52 56 58 59 63 64 72 80 86 90 93 92 83 75 79 61 56 60 65 66 65 74 65 55 59 68 65 74 88 83 97 90 76 76 132 145 145 165 178 166 147
40 44 45 45 49 53 59 62 68 76 86 92 92 93 82 84 71 70 65 56 56 61 63 60 54 50 47 54 56 56 73 82 86 81 66 65 124 127 147 159 166 162 170
34 36 40 41 45 48 56 62 68 74 79 87 85 86 95 84 92 70 76 64 60 59 61 56 51 48 47 58 56 57 52 56 68 69 59 68 118 129 137 155 157 151 140
29 33 37 40 40 43 50 58 63 68 75 78 86 85 97 90 91 85 84 85 75 62 60 56 50 48 45 51 51 45 50 57 61 64 53 80 113 118 123 146 132 141 119
25 29 32 36 41 41 43 55 59 56 53 61 70 78 85 95 90 82 82 81 64 54 60 57 46 35 39 43 49 53 51 62 60 61 50 84 106 115 114 131 120 120 117
21 25 30 35 39 44 49 44 46 55 56 50 53 63 76 73 77 76 76 58 48 49 20 16 24 30 32 33 31 44 53 57 59 53 57 97 110 111 117 121 124 129 113
20 24 27 31 36 43 48 56 65 53 59 65 66 65 73 69 71 74 71 54 55 43 46 37 28 24 26 24 17 33 40 46 53 49 72 95 108 109 114 115 114 115 106
18 22 24 28 33 38 45 52 58 66 75 75 73 81 80 75 71 71 74 65 73 70 68 65 52 42 34 31 31 29 35 44 44 53 82 99 107 116 115 114 118 115 103
12 16 18 22 29 35 40 46 52 56 63 71 74 78 91 86 85 86 89 95 92 90 86 85 69 57 46 40 34 30 34 38 44 68 89 100 107 113 115 115 116 118 110
7 9 13 19 24 29 37 43 49 53 59 66 71 78 84 89 99 101 100 99 99 96 93 90 89 73 61 54 41 28 29 34 46 76 92 105 109 113 111 113 117 122 117
3 6 10 16 20 29 35 41 46 50 54 58 63 66 62 80 91 96 98 98 99 100 100 91 96 93 80 71 55 33 21 21 37 66 93 104 109 106 105 110 119 119 117
4 2 7 12 19 25 31 37 40 44 48 52 55 60 63 71 79 85 91 94 95 98 102 104 98 103 96 88 80 54 30 13 22 55 66 93 107 107 108 108 115 114 113
8 5 6 10 17 22 26 32 37 41 45 48 52 56 62 66 70 75 81 87 91 94 98 106 112 112 104 95 91 79 54 26 10 30 60 74 93 102 104 101 101 104 107
11 8 5 8 13 18 22 28 34 38 41 44 47 50 54 58 62 65 70 76 82 88 92 98 103 111 109 101 96 93 75 41 14 9 34 63 76 90 93 94 103 107 106
15 10 7 8 10 14 20 25 30 34 38 42 44 46 47 49 53 58 62 68 73 80 86 93 94 104 113 101 98 97 88 69 35 11 16 37 50 64 76 87 91 93 96
17 13 9 7 9 12 18 22 26 30 34 38 41 43 45 46 48 52 55 60 66 71 77 83 89 94 109 105 96 93 95 86 70 47 24 20 31 42 52 60 64 71 81
Wind_Direction_500mb
306 314 315 317 319 318 319 319 317 316 316 315 313 310 307 304 301 298 287 284 280 274 275 272 258 248 252 273 242 247 251 240 247 264 258 249 283 203 205 201 171 175 177
305 310 313 316 318 320 321 321 320 319 319 317 314 312 308 302 299 295 287 281 274 275 275 271 261 256 251 259 256 250 252 244 251 254 259 256 253 213 199 200 198 200 188
300 308 314 317 319 321 323 322 322 322 321 318 314 311 308 304 300 294 287 283 276 274 274 271 265 254 247 250 259 250 252 252 251 255 252 255 250 205 196 188 190 190 180
302 310 315 319 322 323 322 323 325 324 321 319 316 313 310 305 298 291 282 277 274 275 276 272 265 256 244 244 255 248 259 255 251 246 246 257 247 211 195 179 176 176 171
306 314 318 322 324 324 326 326 324 325 322 320 319 317 313 310 305 295 288 285 285 289 288 283 265 257 248 241 246 255 253 258 252 259 254 251 251 203 186 172 172 169 173
316 320 324 324 327 328 328 327 327 326 325 324 325 324 321 314 298 290 285 283 282 277 277 279 279 262 258 241 243 246 254 259 257 259 256 249 259 177 177 177 169 161 158
320 323 327 329 330 330 330 331 330 329 330 333 331 329 327 317 301 296 290 285 283 282 279 274 274 270 252 255 244 244 251 259 263 265 263 246 216 179 173 167 167 168 173
322 327 331 329 330 331 332 335 333 333 337 337 337 339 330 319 305 300 296 292 289 284 282 277 267 265 257 249 253 247 250 256 256 264 263 256 255 183 189 184 177 173 168
328 331 331 330 332 335 335 338 339 338 339 340 342 342 338 331 321 308 305 302 297 300 286 286 271 261 258 251 251 250 253 259 259 269 259 266 237 190 187 172 166 163 168
331 334 333 333 336 337 337 340 344 342 342 342 343 348 344 336 329 313 308 305 306 297 298 291 285 265 252 248 247 252 261 257 265 276 282 232 204 189 182 179 175 171 172
330 330 331 334 337 336 339 345 346 345 344 347 346 346 336 330 331 321 316 306 302 298 294 305 284 274 255 243 245 248 248 256 262 273 280 212 185 182 180 181 185 181 175
328 330 331 335 338 341 342 346 351 348 349 349 346 339 334 331 329 322 318 312 307 301 298 297 294 281 264 250 250 254 256 258 261 276 283 214 180 181 179 184 186 186 193
328 330 331 339 344 347 347 350 354 353 354 350 339 336 334 335 328 331 330 321 310 301 292 285 279 276 275 257 247 254 246 248 254 267 264 206 182 182 181 186 189 186 185
329 331 333 342 349 355 352 354 1 357 357 344 339 337 338 332 333 334 329 326 318 301 289 281 272 268 270 256 246 249 236 243 257 263 248 199 182 179 178 185 183 184 181
326 330 338 347 351 359 6 1 5 5 353 343 341 338 338 334 336 333 332 328 325 317 302 288 279 267 263 258 249 252 247 245 257 252 232 192 180 179 178 181 179 179 181
327 337 344 354 356 359 359 11 14 11 12 0 351 348 346 340 341 344 343 347 350 343 352 304 295 287 290 280 270 255 253 252 254 238 215 189 183 181 182 185 184 185 181
335 344 352 357 358 4 3 3 3 15 18 19 15 0 358 353 355 358 359 7 14 28 38 24 6 343 328 315 286 253 276 273 252 222 207 188 195 195 187 184 184 182 181
337 346 357 359 2 6 7 8 8 9 9 15 24 22 11 12 7 9 13 32 35 34 34 22 11 1 347 325 300 278 258 262 260 218 206 195 195 190 186 186 186 184 182
334 346 357 2 5 6 9 12 14 14 15 15 16 26 22 25 31 34 38 38 29 27 27 19 18 10 2 343 322 295 270 254 241 216 207 199 200 197 192 192 191 189 185
319 339 3 11 7 7 12 16 19 20 20 21 22 26 16 23 28 32 37 39 35 30 26 21 17 19 14 3 347 317 278 255 226 216 205 202 201 200 199 198 194 192 191
296 359 15 17 11 17 17 20 23 23 25 26 26 30 19 30 31 31 31 36 38 33 29 25 16 20 22 19 7 354 313 251 211 206 209 205 205 202 201 205 204 200 196
189 77 36 22 24 24 23 25 26 27 26 26 28 30 32 32 34 33 32 32 36 39 38 30 26 21 25 26 19 11 355 305 215 199 201 210 210 211 208 207 208 209 202
173 128 62 40 37 33 31 30 29 31 30 28 26 27 29 32 32 33 32 32 32 36 39 37 33 23 29 33 31 22 12 354 289 210 200 202 211 210 212 212 213 209 206
169 142 104 63 50 44 40 38 35 32 32 30 29 28 28 29 31 31 31 31 31 32 34 37 34 31 27 31 34 33 23 13 358 240 212 208 209 210 211 212 215 215 210
173 157 130 90 63 51 50 46 40 35 31 31 30 29 28 29 30 31 30 31 31 31 32 34 32 33 27 29 33 38 32 29 33 59 159 190 199 203 206 209 211 211 210
179 164 141 105 72 54 53 48 45 39 34 31 29 27 27 27 27 28 29 30 30 31 32 32 31 33 30 23 31 35 40 36 40 50 72 130 165 186 200 207 211 213 215
Wind_Speed_850mb
39 42 50 56 63 68 75 80 85 88 86 89 90 92 94 98 99 94 88 90 86 77 84 82 90 99 97 63 76 68 65 64 75 86 92 125 47 123 101 103 88 90 92
40 45 52 59 65 71 76 82 85 88 85 86 90 95 100 100 97 91 90 85 80 82 78 77 86 81 97 63 74 71 68 73 75 83 78 105 112 103 128 127 116 102 108
40 48 54 61 68 74 78 83 85 87 89 88 90 92 97 100 94 88 82 82 77 81 84 87 87 81 96 78 63 66 69 64 80 74 92 110 102 113 110 122 127 133 142
41 49 56 63 70 75 80 82 83 85 89 91 91 93 93 95 84 75 69 74 78 80 80 77 82 82 94 83 53 68 69 69 76 69 88 102 120 89 128 131 133 133 134
43 50 59 66 72 76 79 80 82 82 86 89 93 92 91 86 80 65 62 66 70 77 76 73 76 71 90 93 79 48 68 65 76 80 90 87 98 113 126 123 127 132 142
44 55 63 70 74 76 75 78 80 81 83 88 91 93 90 83 67 66 66 73 74 77 81 82 77 75 76 98 85 74 64 76 74 79 91 103 107 129 119 131 129 118 104
45 56 65 73 76 75 75 75 77 82 86 89 89 88 85 79 67 65 63 68 75 80 79 81 80 77 69 76 92 91 78 80 76 77 86 112 79 130 124 132 135 142 130
47 57 65 71 72 71 72 72 76 82 86 87 88 85 81 74 65 65 64 65 69 71 82 82 81 79 77 72 71 87 95 89 88 84 91 104 90 132 140 153 155 144 119
47 58 65 68 68 69 70 71 75 84 88 89 85 82 79 69 60 63 61 62 73 75 88 78 74 78 79 69 66 78 80 93 90 87 90 106 105 137 156 136 132 133 116
47 57 61 63 64 65 66 69 73 80 87 89 91 88 86 80 72 64 60 52 67 69 63 75 70 70 72 60 66 75 83 90 88 87 77 84 111 144 149 163 159 148 135
45 49 52 56 58 59 63 64 72 80 86 90 93 92 83 75 79 61 56 60 65 66 65 74 65 55 59 68 65 74 88 83 97 90 76 76 132 145 145 165 178 166 147
40 44 45 45 49 53 59 62 68 76 86 92 92 93 82 84 71 70 65 56 56 61 63 60 54 50 47 54 56 56 73 82 86 81 66 65 124 127 147 159 166 162 170
34 36 40 41 45 48 56 62 68 74 79 87 85 86 95 84 92 70 76 64 60 59 61 56 51 48 47 58 56 57 52 56 68 69 59 68 118 129 137 155 157 151 140
29 33 37 40 40 43 50 58 63 68 75 78 86 85 97 90 91 85 84 85 75 62 60 56 50 48 45 51 51 45 50 57 61 64 53 80 113 118 123 146 132 141 119
25 29 32 36 41 41 43 55 59 56 53 61 70 78 85 95 90 82 82 81 64 54 60 57 46 35 39 43 49 53 51 62 60 61 50 84 106 115 114 131 120 120 117
21 25 30 35 39 44 49 44 46 55 56 50 53 63 76 73 77 76 76 58 48 49 20 16 24 30 32 33 31 44 53 57 59 53 57 97 110 111 117 121 124 129 113
20 24 27 31 36 43 48 56 65 53 59 65 66 65 73 69 71 74 71 54 55 43 46 37 28 24 26 24 17 33 40 46 53 49 72 95 108 109 114 115 114 115 106
18 22 24 28 33 38 45 52 58 66 75 75 73 81 80 75 71 71 74 65 73 70 68 65 52 42 34 31 31 29 35 44 44 53 82 99 107 116 115 114 118 115 103
12 16 18 22 29 35 40 46 52 56 63 71 74 78 91 86 85 86 89 95 92 90 86 85 69 57 46 40 34 30 34 38 44 68 89 100 107 113 115 115 116 118 110
7 9 13 19 24 29 37 43 49 53 59 66 71 78 84 89 99 101 100 99 99 96 93 90 89 73 61 54 41 28 29 34 46 76 92 105 109 113 111 113 117 122 117
3 6 10 16 20 29 35 41 46 50 54 58 63 66 62 80 91 96 98 98 99 100 100 91 96 93 80 71 55 33 21 21 37 66 93 104 109 106 105 110 119 119 117
4 2 7 12 19 25 31 37 40 44 48 52 55 60 63 71 79 85 91 94 95 98 102 104 98 103 96 88 80 54 30 13 22 55 66 93 107 107 108 108 115 114 113
8 5 6 10 17 22 26 32 37 41 45 48 52 56 62 66 70 75 81 87 91 94 98 106 112 112 104 95 91 79 54 26 10 30 60 74 93 102 104 101 101 104 107
11 8 5 8 13 18 22 28 34 38 41 44 47 50 54 58 62 65 70 76 82 88 92 98 103 111 109 101 96 93 75 41 14 9 34 63 76 90 93 94 103 107 106
15 10 7 8 10 14 20 25 30 34 38 42 44 46 47 49 53 58 62 68 73 80 86 93 94 104 113 101 98 97 88 69 35 11 16 37 50 64 76 87 91 93 96
17 13 9 7 9 12 18 22 26 30 34 38 41 43 45 46 48 52 55 60 66 71 77 83 89 94 109 105 96 93 95 86 70 47 24 20 31 42 52 60 64 71 81
Wind_Direction_850mb
306 314 315 317 319 318 319 319 317 316 316 315 313 310 307 304 301 298 287 284 280 274 275 272 258 248 252 273 242 247 251 240 247 264 258 249 283 203 205 201 171 175 177
305 310 313 316 318 320 321 321 320 319 319 317 314 312 308 302 299 295 287 281 274 275 275 271 261 256 251 259 256 250 252 244 251 254 259 256 253 213 199 200 198 200 188
300 308 314 317 319 321 323 322 322 322 321 318 314 311 308 304 300 294 287 283 276 274 274 271 265 254 247 250 259 250 252 252 251 255 252 255 250 205 196 188 190 190 180
302 310 315 319 322 323 322 323 325 324 321 319 316 313 310 305 298 291 282 277 274 275 276 272 265 256 244 244 255 248 259 255 251 246 246 257 247 211 195 179 176 176 171
306 314 318 322 324 324 326 326 324 325 322 320 319 317 313 310 305 295 288 285 285 289 288 283 265 257 248 241 246 255 253 258 252 259 254 251 251 203 186 172 172 169 173
316 320 324 324 327 328 328 327 327 326 325 324 325 324 321 314 298 290 285 283 282 277 277 279 279 262 258 241 243 246 254 259 257 259 256 249 259 177 177 177 169 161 158
320 323 327 329 330 330 330 331 330 329 330 333 331 329 327 317 301 296 290 285 283 282 279 274 274 270 252 255 244 244 251 259 263 265 263 246 216 179 173 167 167 168 173
322 327 331 329 330 331 332 335 333 333 337 337 337 339 330 319 305 300 296 292 289 284 282 277 267 265 257 249 253 247 250 256 256 264 263 256 255 183 189 184 177 173 168
328 331 331 330 332 335 335 338 339 338 339 340 342 342 338 331 321 308 305 302 297 300 286 286 271 261 258 251 251 250 253 259 259 269 259 266 237 190 187 172 166 163 168
331 334 333 333 336 337 337 340 344 342 342 342 343 348 344 336 329 313 308 305 306 297 298 291 285 265 252 248 247 252 261 257 265 276 282 232 204 189 182 179 175 171 172
330 330 331 334 337 336 339 345 346 345 344 347 346 346 336 330 331 321 316 306 302 298 294 305 284 274 255 243 245 248 248 256 262 273 280 212 185 182 180 181 185 181 175
328 330 331 335 338 341 342 346 351 348 349 349 346 339 334 331 329 322 318 312 307 301 298 297 294 281 264 250 250 254 256 258 261 276 283 214 180 181 179 184 186 186 193
328 330 331 339 344 347 347 350 354 353 354 350 339 336 334 335 328 331 330 321 310 301 292 285 279 276 275 257 247 254 246 248 254 267 264 206 182 182 181 186 189 186 185
329 331 333 342 349 355 352 354 1 357 357 344 339 337 338 332 333 334 329 326 318 301 289 281 272 268 270 256 246 249 236 243 257 263 248 199 182 179 178 185 183 184 181
326 330 338 347 351 359 6 1 5 5 353 343 341 338 338 334 336 333 332 328 325 317 302 288 279 267 263 258 249 252 247 245 257 252 232 192 180 179 178 181 179 179 181
327 337 344 354 356 359 359 11 14 11 12 0 351 348 346 340 341 344 343 347 350 343 352 304 295 287 290 280 270 255 253 252 254 238 215 189 183 181 182 185 184 185 181
335 344 352 357 358 4 3 3 3 15 18 19 15 0 358 353 355 358 359 7 14 28 38 24 6 343 328 315 286 253 276 273 252 222 207 188 195 195 187 184 184 182 181
337 346 357 359 2 6 7 8 8 9 9 15 24 22 11 12 7 9 13 32 35 34 34 22 11 1 347 325 300 278 258 262 260 218 206 195 195 190 186 186 186 184 182
334 346 357 2 5 6 9 12 14 14 15 15 16 26 22 25 31 34 38 38 29 27 27 19 18 10 2 343 322 295 270 254 241 216 207 199 200 197 192 192 191 189 185
319 339 3 11 7 7 12 16 19 20 20 21 22 26 16 23 28 32 37 39 35 30 26 21 17 19 14 3 347 317 278 255 226 216 205 202 201 200 199 198 194 192 191
296 359 15 17 11 17 17 20 23 23 25 26 26 30 19 30 31 31 31 36 38 33 29 25 16 20 22 19 7 354 313 251 211 206 209 205 205 202 201 205 204 200 196
189 77 36 22 24 24 23 25 26 27 26 26 28 30 32 32 34 33 32 32 36 39 38 30 26 21 25 26 19 11 355 305 215 199 201 210 210 211 208 207 208 209 202
173 128 62 40 37 33 31 30 29 31 30 28 26 27 29 32 32 33 32 32 32 36 39 37 33 23 29 33 31 22 12 354 289 210 200 202 211 210 212 212 213 209 206
169 142 104 63 50 44 40 38 35 32 32 30 29 28 28 29 31 31 31 31 31 32 34 37 34 31 27 31 34 33 23 13 358 240 212 208 209 210 211 212 215 215 210
173 157 130 90 63 51 50 46 40 35 31 31 30 29 28 29 30 31 30 31 31 31 32 34 32 33 27 29 33 38 32 29 33 59 159 190 199 203 206 209 211 211 210
179 164 141 105 72 54 53 48 45 39 34 31 29 27 27 27 27 28 29 30 30 31 32 32 31 33 30 23 31 35 40 36 40 50 72 130 165 186 200 207 211 213 215